Time,TemperatureF,DewpointF,PressureIn,WindDirection,WindDirectionDegrees,WindSpeedMPH,WindSpeedGustMPH,Humidity,HourlyPrecipIn,Conditions,Clouds,dailyrainin,SolarRadiationWatts/m^2,SoftwareType,DateUTC
2013-02-02 00:00:00,47.8,43.2,30.22,N/A,-737280,0.0,-999.0,84,0.00,,,0.00,0,Wunderground v.1.15,2013-02-02 08:00:00,
2013-02-02 00:05:00,48.2,43.3,30.21,NW,313,0.0,-999.0,83,0.00,,,0.00,0,Wunderground v.1.15,2013-02-02 08:05:00,
2013-02-02 00:10:00,48.2,43.6,30.21,NW,313,0.0,-999.0,84,0.00,,,0.00,0,Wunderground v.1.15,2013-02-02 08:10:00,
2013-02-02 00:15:00,48.3,43.7,30.21,NW,313,0.0,-999.0,84,0.00,,,0.00,0,Wunderground v.1.15,2013-02-02 08:15:00,
2013-02-02 00:20:00,48.3,43.4,30.21,NW,313,0.0,-999.0,83,0.00,,,0.00,0,Wunderground v.1.15,2013-02-02 08:20:00,
2013-02-02 00:25:00,48.2,43.6,30.21,NW,313,0.0,-999.0,84,0.00,,,0.00,0,Wunderground v.1.15,2013-02-02 08:25:00,
2013-02-02 00:30:00,48.1,43.5,30.21,NW,313,0.0,-999.0,84,0.00,,,0.00,0,Wunderground v.1.15,2013-02-02 08:30:00,
2013-02-02 00:35:00,47.9,43.3,30.22,NW,313,0.0,-999.0,84,0.00,,,0.00,0,Wunderground v.1.15,2013-02-02 08:35:00,
2013-02-02 00:40:00,47.8,43.2,30.22,NW,313,0.0,-999.0,84,0.00,,,0.00,0,Wunderground v.1.15,2013-02-02 08:40:00,
2013-02-02 00:45:00,47.8,43.2,30.22,NW,313,0.0,-999.0,84,0.00,,,0.00,0,Wunderground v.1.15,2013-02-02 08:45:00,
2013-02-02 00:50:00,47.8,43.2,30.22,NW,313,0.0,-999.0,84,0.00,,,0.00,0,Wunderground v.1.15,2013-02-02 08:50:00,
2013-02-02 00:55:00,47.8,43.5,30.21,NW,313,0.0,-999.0,85,0.00,,,0.00,0,Wunderground v.1.15,2013-02-02 08:55:00,
2013-02-02 01:00:00,47.6,43.3,30.21,NW,313,0.0,-999.0,85,0.00,,,0.00,0,Wunderground v.1.15,2013-02-02 09:00:00,
2013-02-02 01:05:00,47.4,43.1,30.21,NW,313,0.0,-999.0,85,0.00,,,0.00,0,Wunderground v.1.15,2013-02-02 09:05:00,
2013-02-02 01:10:00,47.5,43.2,30.22,NW,313,0.0,-999.0,85,0.00,,,0.00,0,Wunderground v.1.15,2013-02-02 09:10:00,
2013-02-02 01:15:00,47.5,43.2,30.22,NW,313,0.0,-999.0,85,0.00,,,0.00,0,Wunderground v.1.15,2013-02-02 09:15:00,
2013-02-02 01:20:00,47.4,43.1,30.22,NW,313,0.0,-999.0,85,0.00,,,0.00,0,Wunderground v.1.15,2013-02-02 09:20:00,
2013-02-02 01:25:00,47.2,42.9,30.22,NW,313,0.0,-999.0,85,0.00,,,0.00,0,Wunderground v.1.15,2013-02-02 09:25:00,
2013-02-02 01:30:00,47.1,43.1,30.22,NW,313,0.0,-999.0,86,0.00,,,0.00,0,Wunderground v.1.15,2013-02-02 09:30:00,
2013-02-02 01:35:00,47.1,42.8,30.22,NW,313,0.0,-999.0,85,0.00,,,0.00,0,Wunderground v.1.15,2013-02-02 09:35:00,
2013-02-02 01:40:00,47.0,43.0,30.22,NW,313,0.0,-999.0,86,0.00,,,0.00,0,Wunderground v.1.15,2013-02-02 09:40:00,
2013-02-02 01:45:00,46.9,42.9,30.22,NW,313,0.0,-999.0,86,0.00,,,0.00,0,Wunderground v.1.15,2013-02-02 09:45:00,
2013-02-02 01:50:00,46.8,42.8,30.22,NW,313,0.0,-999.0,86,0.00,,,0.00,0,Wunderground v.1.15,2013-02-02 09:50:00,
2013-02-02 01:55:00,46.7,42.7,30.22,NW,313,0.0,-999.0,86,0.00,,,0.00,0,Wunderground v.1.15,2013-02-02 09:55:00,
2013-02-02 02:00:00,46.6,42.6,30.22,NW,313,0.0,-999.0,86,0.00,,,0.00,0,Wunderground v.1.15,2013-02-02 10:00:00,
2013-02-02 02:05:00,46.5,42.8,30.22,NW,313,0.0,-999.0,87,0.00,,,0.00,0,Wunderground v.1.15,2013-02-02 10:05:00,
2013-02-02 02:10:00,46.4,42.7,30.22,NW,313,0.0,-999.0,87,0.00,,,0.00,0,Wunderground v.1.15,2013-02-02 10:10:00,
2013-02-02 02:15:00,46.3,42.6,30.22,NW,313,0.0,-999.0,87,0.00,,,0.00,0,Wunderground v.1.15,2013-02-02 10:15:00,
2013-02-02 02:20:00,46.4,42.7,30.22,NW,313,0.0,-999.0,87,0.00,,,0.00,0,Wunderground v.1.15,2013-02-02 10:20:00,
2013-02-02 02:25:00,46.5,42.8,30.22,NW,313,0.0,-999.0,87,0.00,,,0.00,0,Wunderground v.1.15,2013-02-02 10:25:00,
2013-02-02 02:30:00,46.7,43.0,30.23,NW,313,0.0,-999.0,87,0.00,,,0.00,0,Wunderground v.1.15,2013-02-02 10:30:00,
2013-02-02 02:35:00,46.9,43.2,30.22,NW,313,0.0,-999.0,87,0.00,,,0.00,0,Wunderground v.1.15,2013-02-02 10:35:00,
2013-02-02 02:40:00,46.9,43.2,30.22,NW,313,0.0,-999.0,87,0.00,,,0.00,0,Wunderground v.1.15,2013-02-02 10:40:00,
2013-02-02 02:45:00,46.9,43.2,30.23,NW,313,0.0,-999.0,87,0.00,,,0.00,0,Wunderground v.1.15,2013-02-02 10:45:00,
2013-02-02 02:50:00,46.9,43.2,30.22,NW,313,0.0,-999.0,87,0.00,,,0.00,0,Wunderground v.1.15,2013-02-02 10:50:00,
2013-02-02 02:55:00,47.0,43.3,30.22,NW,313,0.0,-999.0,87,0.00,,,0.00,0,Wunderground v.1.15,2013-02-02 10:55:00,
2013-02-02 03:00:00,47.1,43.4,30.22,NW,313,0.0,-999.0,87,0.00,,,0.00,0,Wunderground v.1.15,2013-02-02 11:00:00,
2013-02-02 03:05:00,47.4,43.4,30.22,NW,313,0.0,-999.0,86,0.00,,,0.00,0,Wunderground v.1.15,2013-02-02 11:05:00,
2013-02-02 03:10:00,47.3,43.3,30.22,NW,313,0.0,-999.0,86,0.00,,,0.00,0,Wunderground v.1.15,2013-02-02 11:10:00,
2013-02-02 03:15:00,47.0,42.7,30.22,NW,313,0.0,-999.0,85,0.00,,,0.00,0,Wunderground v.1.15,2013-02-02 11:15:00,
2013-02-02 03:20:00,47.0,43.0,30.22,NW,313,0.0,-999.0,86,0.00,,,0.00,0,Wunderground v.1.15,2013-02-02 11:20:00,
2013-02-02 03:25:00,46.8,42.8,30.22,NW,313,0.0,-999.0,86,0.00,,,0.00,0,Wunderground v.1.15,2013-02-02 11:25:00,
2013-02-02 03:30:00,46.4,42.4,30.22,NW,313,0.0,-999.0,86,0.00,,,0.00,0,Wunderground v.1.15,2013-02-02 11:30:00,
2013-02-02 03:35:00,46.2,42.5,30.22,NW,313,0.0,-999.0,87,0.00,,,0.00,0,Wunderground v.1.15,2013-02-02 11:35:00,
2013-02-02 03:40:00,46.3,42.6,30.22,NW,313,0.0,-999.0,87,0.00,,,0.00,0,Wunderground v.1.15,2013-02-02 11:40:00,
2013-02-02 03:45:00,46.3,42.6,30.22,NW,313,0.0,-999.0,87,0.00,,,0.00,0,Wunderground v.1.15,2013-02-02 11:45:00,
2013-02-02 03:50:00,46.1,42.4,30.22,NW,313,0.0,-999.0,87,0.00,,,0.00,0,Wunderground v.1.15,2013-02-02 11:50:00,
2013-02-02 03:55:00,45.9,42.2,30.22,NW,313,0.0,-999.0,87,0.00,,,0.00,0,Wunderground v.1.15,2013-02-02 11:55:00,
2013-02-02 04:00:00,45.8,42.4,30.22,NW,313,0.0,-999.0,88,0.00,,,0.00,0,Wunderground v.1.15,2013-02-02 12:00:00,
2013-02-02 04:05:00,45.2,41.6,30.23,NW,313,0.0,-999.0,87,0.00,,,0.00,0,Wunderground v.1.15,2013-02-02 12:05:00,
2013-02-02 04:10:00,44.9,41.6,30.23,NW,313,0.0,-999.0,88,0.00,,,0.00,0,Wunderground v.1.15,2013-02-02 12:10:00,
2013-02-02 04:15:00,44.9,41.6,30.22,NW,313,0.0,-999.0,88,0.00,,,0.00,0,Wunderground v.1.15,2013-02-02 12:15:00,
2013-02-02 04:20:00,45.2,42.2,30.22,NW,313,0.0,-999.0,89,0.00,,,0.00,0,Wunderground v.1.15,2013-02-02 12:20:00,
2013-02-02 04:25:00,45.5,42.2,30.22,NW,313,0.0,-999.0,88,0.00,,,0.00,0,Wunderground v.1.15,2013-02-02 12:25:00,
2013-02-02 04:30:00,45.6,42.3,30.22,NW,313,0.0,-999.0,88,0.00,,,0.00,0,Wunderground v.1.15,2013-02-02 12:30:00,
2013-02-02 04:35:00,45.6,42.0,30.22,NW,313,0.0,-999.0,87,0.00,,,0.00,0,Wunderground v.1.15,2013-02-02 12:35:00,
2013-02-02 04:40:00,45.5,41.9,30.22,NW,313,0.0,-999.0,87,0.00,,,0.00,0,Wunderground v.1.15,2013-02-02 12:40:00,
2013-02-02 04:45:00,45.4,41.8,30.22,NW,313,0.0,-999.0,87,0.00,,,0.00,0,Wunderground v.1.15,2013-02-02 12:45:00,
2013-02-02 04:50:00,45.5,41.9,30.22,NW,313,0.0,-999.0,87,0.00,,,0.00,0,Wunderground v.1.15,2013-02-02 12:50:00,
2013-02-02 04:55:00,45.7,42.1,30.22,NW,313,0.0,-999.0,87,0.00,,,0.00,0,Wunderground v.1.15,2013-02-02 12:55:00,
2013-02-02 05:00:00,45.5,41.9,30.22,NW,313,0.0,-999.0,87,0.00,,,0.00,0,Wunderground v.1.15,2013-02-02 13:00:00,
2013-02-02 05:05:00,45.8,42.2,30.22,NW,313,0.0,-999.0,87,0.00,,,0.00,0,Wunderground v.1.15,2013-02-02 13:05:00,
2013-02-02 05:10:00,45.8,42.2,30.22,NW,313,0.0,-999.0,87,0.00,,,0.00,0,Wunderground v.1.15,2013-02-02 13:10:00,
2013-02-02 05:15:00,45.6,42.0,30.22,NW,313,0.0,-999.0,87,0.00,,,0.00,0,Wunderground v.1.15,2013-02-02 13:15:00,
2013-02-02 05:20:00,45.6,42.0,30.22,NW,313,0.0,-999.0,87,0.00,,,0.00,0,Wunderground v.1.15,2013-02-02 13:20:00,
2013-02-02 05:25:00,45.5,42.2,30.21,NW,313,0.0,-999.0,88,0.00,,,0.00,0,Wunderground v.1.15,2013-02-02 13:25:00,
2013-02-02 05:30:00,45.6,42.3,30.21,NW,313,0.0,-999.0,88,0.00,,,0.00,0,Wunderground v.1.15,2013-02-02 13:30:00,
2013-02-02 05:35:00,45.4,42.1,30.22,NW,313,0.0,-999.0,88,0.00,,,0.00,0,Wunderground v.1.15,2013-02-02 13:35:00,
2013-02-02 05:40:00,45.4,42.1,30.22,NW,313,0.0,-999.0,88,0.00,,,0.00,0,Wunderground v.1.15,2013-02-02 13:40:00,
2013-02-02 05:45:00,45.4,42.1,30.22,NW,313,0.0,-999.0,88,0.00,,,0.00,0,Wunderground v.1.15,2013-02-02 13:45:00,
2013-02-02 05:50:00,-999.9,-99.9,30.22,North,32767,-999.0,-999.0,255,-99.99,,,0.00,,Wunderground v.1.15,2013-02-02 13:50:00,
2013-02-02 05:55:00,-999.9,-99.9,30.21,North,32767,-999.0,-999.0,255,-99.99,,,0.00,,Wunderground v.1.15,2013-02-02 13:55:00,
2013-02-02 06:00:00,-999.9,-99.9,30.22,North,32767,-999.0,-999.0,255,-99.99,,,0.00,,Wunderground v.1.15,2013-02-02 14:00:00,
2013-02-02 06:05:00,-999.9,-99.9,30.22,North,32767,-999.0,-999.0,255,-99.99,,,0.00,,Wunderground v.1.15,2013-02-02 14:05:00,
2013-02-02 06:10:00,-999.9,-99.9,30.22,North,32767,-999.0,-999.0,255,-99.99,,,0.00,,Wunderground v.1.15,2013-02-02 14:10:00,
2013-02-02 06:15:00,-999.9,-99.9,30.22,North,32767,-999.0,-999.0,255,-99.99,,,0.00,,Wunderground v.1.15,2013-02-02 14:15:00,
2013-02-02 06:20:00,-999.9,-99.9,30.22,North,32767,-999.0,-999.0,255,-99.99,,,0.00,,Wunderground v.1.15,2013-02-02 14:20:00,
2013-02-02 06:25:00,-999.9,-99.9,30.22,North,32767,-999.0,-999.0,255,-99.99,,,0.00,,Wunderground v.1.15,2013-02-02 14:25:00,
2013-02-02 06:30:00,-999.9,-99.9,30.22,North,32767,-999.0,-999.0,255,-99.99,,,0.00,,Wunderground v.1.15,2013-02-02 14:30:00,
2013-02-02 06:35:00,-999.9,-99.9,30.23,North,32767,-999.0,-999.0,255,-99.99,,,0.00,,Wunderground v.1.15,2013-02-02 14:35:00,
2013-02-02 06:40:00,-999.9,-99.9,30.23,North,32767,-999.0,-999.0,255,-99.99,,,0.00,,Wunderground v.1.15,2013-02-02 14:40:00,
2013-02-02 06:45:00,-999.9,-99.9,30.23,North,32767,-999.0,-999.0,255,-99.99,,,0.00,,Wunderground v.1.15,2013-02-02 14:45:00,
2013-02-02 06:50:00,-999.9,-99.9,30.23,North,32767,-999.0,-999.0,255,-99.99,,,0.00,,Wunderground v.1.15,2013-02-02 14:50:00,
2013-02-02 06:55:00,-999.9,-99.9,30.24,North,32767,-999.0,-999.0,255,-99.99,,,0.00,,Wunderground v.1.15,2013-02-02 14:55:00,
2013-02-02 07:00:00,-999.9,-99.9,30.24,North,32767,-999.0,-999.0,255,-99.99,,,0.00,,Wunderground v.1.15,2013-02-02 15:00:00,
2013-02-02 07:05:00,-999.9,-99.9,30.23,North,32767,-999.0,-999.0,255,-99.99,,,0.00,,Wunderground v.1.15,2013-02-02 15:05:00,
2013-02-02 07:10:00,-999.9,-99.9,30.24,North,32767,-999.0,-999.0,255,-99.99,,,0.00,,Wunderground v.1.15,2013-02-02 15:10:00,
2013-02-02 07:15:00,-999.9,-99.9,30.24,North,32767,-999.0,-999.0,255,-99.99,,,0.00,,Wunderground v.1.15,2013-02-02 15:15:00,
2013-02-02 07:20:00,-999.9,-99.9,30.24,North,32767,-999.0,-999.0,255,-99.99,,,0.00,,Wunderground v.1.15,2013-02-02 15:20:00,
2013-02-02 07:25:00,-999.9,-99.9,30.24,North,32767,-999.0,-999.0,255,-99.99,,,0.00,,Wunderground v.1.15,2013-02-02 15:25:00,
2013-02-02 07:30:00,-999.9,-99.9,30.24,North,32767,-999.0,-999.0,255,-99.99,,,0.00,,Wunderground v.1.15,2013-02-02 15:30:00,
2013-02-02 07:35:00,-999.9,-99.9,30.24,North,32767,-999.0,-999.0,255,-99.99,,,0.00,,Wunderground v.1.15,2013-02-02 15:35:00,
2013-02-02 07:40:00,-999.9,-99.9,30.25,North,32767,-999.0,-999.0,255,-99.99,,,0.00,,Wunderground v.1.15,2013-02-02 15:40:00,
2013-02-02 07:45:00,-999.9,-99.9,30.25,North,32767,-999.0,-999.0,255,-99.99,,,0.00,,Wunderground v.1.15,2013-02-02 15:45:00,
2013-02-02 07:50:00,-999.9,-99.9,30.25,North,32767,-999.0,-999.0,255,-99.99,,,0.00,,Wunderground v.1.15,2013-02-02 15:50:00,
2013-02-02 07:55:00,-999.9,-99.9,30.25,North,32767,-999.0,-999.0,255,-99.99,,,0.00,,Wunderground v.1.15,2013-02-02 15:55:00,
2013-02-02 08:00:00,-999.9,-99.9,30.26,North,32767,-999.0,-999.0,255,-99.99,,,0.00,,Wunderground v.1.15,2013-02-02 16:00:00,
2013-02-02 08:05:00,-999.9,-99.9,30.26,N/A,-737280,0.0,-999.0,-32768,0.00,,,0.00,,Wunderground v.1.15,2013-02-02 16:05:00,
2013-02-02 08:06:00,-999.9,-99.9,30.26,North,32767,-999.0,-999.0,255,-99.99,,,0.00,,Wunderground v.1.15,2013-02-02 16:06:00,
2013-02-02 08:10:00,-999.9,-99.9,30.26,N/A,-737280,0.0,-999.0,-32768,0.00,,,0.00,,Wunderground v.1.15,2013-02-02 16:10:00,
2013-02-02 08:11:00,-999.9,-99.9,30.26,North,32767,-999.0,-999.0,255,-99.99,,,0.00,,Wunderground v.1.15,2013-02-02 16:11:00,
2013-02-02 08:15:00,46.6,43.2,30.26,NW,315,0.0,-999.0,88,0.00,,,0.00,105,Wunderground v.1.15,2013-02-02 16:15:00,
2013-02-02 08:16:00,-999.9,-99.9,30.26,North,32767,-999.0,-999.0,255,-99.99,,,0.00,,Wunderground v.1.15,2013-02-02 16:16:00,
2013-02-02 08:20:00,46.6,43.2,30.26,NW,315,0.0,-999.0,88,0.00,,,0.00,105,Wunderground v.1.15,2013-02-02 16:20:00,
2013-02-02 08:21:00,-999.9,-99.9,30.26,North,32767,-999.0,-999.0,255,-99.99,,,0.00,,Wunderground v.1.15,2013-02-02 16:21:00,
2013-02-02 08:25:00,46.6,43.2,30.26,NW,315,0.0,-999.0,88,0.00,,,0.00,105,Wunderground v.1.15,2013-02-02 16:25:00,
2013-02-02 08:26:00,-999.9,-99.9,30.26,North,32767,-999.0,-999.0,255,-99.99,,,0.00,,Wunderground v.1.15,2013-02-02 16:26:00,
2013-02-02 08:30:00,46.6,43.2,30.26,NW,315,0.0,-999.0,88,0.00,,,0.00,105,Wunderground v.1.15,2013-02-02 16:30:00,
2013-02-02 08:31:00,-999.9,-99.9,30.26,North,32767,-999.0,-999.0,255,-99.99,,,0.00,,Wunderground v.1.15,2013-02-02 16:31:00,
2013-02-02 08:35:00,46.6,43.2,30.26,NW,315,0.0,-999.0,88,0.00,,,0.00,105,Wunderground v.1.15,2013-02-02 16:35:00,
2013-02-02 08:36:00,-999.9,-99.9,30.27,North,32767,-999.0,-999.0,255,-99.99,,,0.00,,Wunderground v.1.15,2013-02-02 16:36:00,
2013-02-02 08:40:00,46.6,43.2,30.26,NW,315,0.0,-999.0,88,0.00,,,0.00,105,Wunderground v.1.15,2013-02-02 16:40:00,
2013-02-02 08:41:00,46.3,43.2,30.27,NW,313,0.0,-999.0,89,0.00,,,0.00,100,Wunderground v.1.15,2013-02-02 16:41:00,
2013-02-02 08:45:00,48.3,44.6,30.27,NW,315,0.0,-999.0,87,0.00,,,0.00,134,Wunderground v.1.15,2013-02-02 16:45:00,
2013-02-02 08:46:00,46.5,43.1,30.27,NW,313,0.0,-999.0,88,0.00,,,0.00,111,Wunderground v.1.15,2013-02-02 16:46:00,
2013-02-02 08:50:00,48.3,44.6,30.27,NW,315,0.0,-999.0,87,0.00,,,0.00,134,Wunderground v.1.15,2013-02-02 16:50:00,
2013-02-02 08:51:00,46.7,43.3,30.27,NW,313,0.0,-999.0,88,0.00,,,0.00,120,Wunderground v.1.15,2013-02-02 16:51:00,
2013-02-02 08:55:00,48.3,44.6,30.27,NW,315,0.0,-999.0,87,0.00,,,0.00,134,Wunderground v.1.15,2013-02-02 16:55:00,
2013-02-02 08:56:00,46.8,43.4,30.26,NW,313,1.0,-999.0,88,0.00,,,0.00,127,Wunderground v.1.15,2013-02-02 16:56:00,
2013-02-02 09:00:00,48.3,44.6,30.27,NW,315,0.0,-999.0,87,0.00,,,0.00,134,Wunderground v.1.15,2013-02-02 17:00:00,
2013-02-02 09:01:00,47.1,43.7,30.27,NW,313,0.0,-999.0,88,0.00,,,0.00,134,Wunderground v.1.15,2013-02-02 17:01:00,
2013-02-02 09:05:00,48.3,44.6,30.27,NW,315,0.0,-999.0,87,0.00,,,0.00,134,Wunderground v.1.15,2013-02-02 17:05:00,
2013-02-02 09:06:00,47.5,44.1,30.27,NW,313,0.0,-999.0,88,0.00,,,0.00,139,Wunderground v.1.15,2013-02-02 17:06:00,
2013-02-02 09:10:00,48.3,44.6,30.27,NW,315,0.0,-999.0,87,0.00,,,0.00,134,Wunderground v.1.15,2013-02-02 17:10:00,
2013-02-02 09:11:00,47.8,44.4,30.27,NW,313,0.0,-999.0,88,0.00,,,0.00,142,Wunderground v.1.15,2013-02-02 17:11:00,
2013-02-02 09:15:00,49.6,45.3,30.27,NW,315,0.0,-999.0,85,0.00,,,0.00,159,Wunderground v.1.15,2013-02-02 17:15:00,
2013-02-02 09:16:00,48.2,44.8,30.27,NW,313,0.0,-999.0,88,0.00,,,0.00,146,Wunderground v.1.15,2013-02-02 17:16:00,
2013-02-02 09:20:00,49.6,45.3,30.27,NW,315,0.0,-999.0,85,0.00,,,0.00,159,Wunderground v.1.15,2013-02-02 17:20:00,
2013-02-02 09:21:00,48.5,44.8,30.27,NW,313,0.0,-999.0,87,0.00,,,0.00,153,Wunderground v.1.15,2013-02-02 17:21:00,
2013-02-02 09:25:00,49.6,45.3,30.27,NW,315,0.0,-999.0,85,0.00,,,0.00,159,Wunderground v.1.15,2013-02-02 17:25:00,
2013-02-02 09:26:00,48.8,44.8,30.27,NW,313,0.0,-999.0,86,0.00,,,0.00,155,Wunderground v.1.15,2013-02-02 17:26:00,
2013-02-02 09:30:00,49.6,45.3,30.27,NW,315,0.0,-999.0,85,0.00,,,0.00,159,Wunderground v.1.15,2013-02-02 17:30:00,
2013-02-02 09:31:00,49.0,45.0,30.27,NW,313,0.0,-999.0,86,0.00,,,0.00,158,Wunderground v.1.15,2013-02-02 17:31:00,
2013-02-02 09:35:00,49.6,45.3,30.27,NW,315,0.0,-999.0,85,0.00,,,0.00,159,Wunderground v.1.15,2013-02-02 17:35:00,
2013-02-02 09:36:00,49.2,44.9,30.27,NW,313,0.0,-999.0,85,0.00,,,0.00,162,Wunderground v.1.15,2013-02-02 17:36:00,
2013-02-02 09:40:00,49.6,45.3,30.27,NW,315,0.0,-999.0,85,0.00,,,0.00,159,Wunderground v.1.15,2013-02-02 17:40:00,
2013-02-02 09:41:00,49.5,45.2,30.27,NW,313,0.0,-999.0,85,0.00,,,0.00,163,Wunderground v.1.15,2013-02-02 17:41:00,
2013-02-02 09:45:00,51.1,45.1,30.28,NW,315,1.0,-999.0,80,0.00,,,0.00,227,Wunderground v.1.15,2013-02-02 17:45:00,
2013-02-02 09:46:00,49.5,45.2,30.27,NW,313,0.0,-999.0,85,0.00,,,0.00,165,Wunderground v.1.15,2013-02-02 17:46:00,
2013-02-02 09:50:00,51.1,45.1,30.28,NW,315,1.0,-999.0,80,0.00,,,0.00,227,Wunderground v.1.15,2013-02-02 17:50:00,
2013-02-02 09:51:00,49.7,45.1,30.27,NW,313,0.0,-999.0,84,0.00,,,0.00,167,Wunderground v.1.15,2013-02-02 17:51:00,
2013-02-02 09:55:00,51.1,45.1,30.28,NW,315,1.0,-999.0,80,0.00,,,0.00,227,Wunderground v.1.15,2013-02-02 17:55:00,
2013-02-02 09:56:00,49.9,44.9,30.27,NW,313,0.0,-999.0,83,0.00,,,0.00,176,Wunderground v.1.15,2013-02-02 17:56:00,
2013-02-02 10:00:00,51.1,45.1,30.28,NW,315,1.0,-999.0,80,0.00,,,0.00,227,Wunderground v.1.15,2013-02-02 18:00:00,
2013-02-02 10:01:00,50.0,44.7,30.28,NW,313,1.0,-999.0,82,0.00,,,0.00,221,Wunderground v.1.15,2013-02-02 18:01:00,
2013-02-02 10:05:00,51.1,45.1,30.28,NW,315,1.0,-999.0,80,0.00,,,0.00,227,Wunderground v.1.15,2013-02-02 18:05:00,
2013-02-02 10:06:00,50.4,44.8,30.28,NW,313,1.0,-999.0,81,0.00,,,0.00,257,Wunderground v.1.15,2013-02-02 18:06:00,
2013-02-02 10:10:00,51.1,45.1,30.28,NW,315,1.0,-999.0,80,0.00,,,0.00,227,Wunderground v.1.15,2013-02-02 18:10:00,
2013-02-02 10:11:00,50.7,45.1,30.28,NW,313,1.0,-999.0,81,0.00,,,0.00,267,Wunderground v.1.15,2013-02-02 18:11:00,
2013-02-02 10:15:00,52.6,45.9,30.28,NW,315,1.0,-999.0,78,0.00,,,0.00,247,Wunderground v.1.15,2013-02-02 18:15:00,
2013-02-02 10:16:00,50.9,44.9,30.28,NW,313,1.0,-999.0,80,0.00,,,0.00,292,Wunderground v.1.15,2013-02-02 18:16:00,
2013-02-02 10:20:00,52.6,45.9,30.28,NW,315,1.0,-999.0,78,0.00,,,0.00,247,Wunderground v.1.15,2013-02-02 18:20:00,
2013-02-02 10:21:00,51.4,45.1,30.28,NW,313,1.0,-999.0,79,0.00,,,0.00,287,Wunderground v.1.15,2013-02-02 18:21:00,
2013-02-02 10:25:00,52.6,45.9,30.28,NW,315,1.0,-999.0,78,0.00,,,0.00,247,Wunderground v.1.15,2013-02-02 18:25:00,
2013-02-02 10:26:00,51.6,45.3,30.28,NW,313,0.0,-999.0,79,0.00,,,0.00,232,Wunderground v.1.15,2013-02-02 18:26:00,
2013-02-02 10:30:00,52.6,45.9,30.28,NW,315,1.0,-999.0,78,0.00,,,0.00,247,Wunderground v.1.15,2013-02-02 18:30:00,
2013-02-02 10:31:00,51.8,45.5,30.28,NW,313,1.0,-999.0,79,0.00,,,0.00,244,Wunderground v.1.15,2013-02-02 18:31:00,
2013-02-02 10:35:00,52.6,45.9,30.28,NW,315,1.0,-999.0,78,0.00,,,0.00,247,Wunderground v.1.15,2013-02-02 18:35:00,
2013-02-02 10:36:00,52.2,45.9,30.28,NW,313,1.0,-999.0,79,0.00,,,0.00,251,Wunderground v.1.15,2013-02-02 18:36:00,
2013-02-02 10:40:00,52.6,45.9,30.28,NW,315,1.0,-999.0,78,0.00,,,0.00,247,Wunderground v.1.15,2013-02-02 18:40:00,
2013-02-02 10:41:00,52.5,45.8,30.28,NW,313,1.0,-999.0,78,0.00,,,0.00,241,Wunderground v.1.15,2013-02-02 18:41:00,
2013-02-02 10:45:00,54.5,45.7,30.28,NW,315,1.0,-999.0,72,0.00,,,0.00,340,Wunderground v.1.15,2013-02-02 18:45:00,
2013-02-02 10:46:00,52.5,45.8,30.28,NW,313,1.0,-999.0,78,0.00,,,0.00,234,Wunderground v.1.15,2013-02-02 18:46:00,
2013-02-02 10:50:00,54.5,45.7,30.28,NW,315,1.0,-999.0,72,0.00,,,0.00,340,Wunderground v.1.15,2013-02-02 18:50:00,
2013-02-02 10:51:00,52.7,46.0,30.28,NW,313,1.0,-999.0,78,0.00,,,0.00,297,Wunderground v.1.15,2013-02-02 18:51:00,
2013-02-02 10:55:00,54.5,45.7,30.28,NW,315,1.0,-999.0,72,0.00,,,0.00,340,Wunderground v.1.15,2013-02-02 18:55:00,
2013-02-02 10:56:00,53.2,45.8,30.27,NW,313,0.0,-999.0,76,0.00,,,0.00,313,Wunderground v.1.15,2013-02-02 18:56:00,
2013-02-02 11:00:00,54.5,45.7,30.28,NW,315,1.0,-999.0,72,0.00,,,0.00,340,Wunderground v.1.15,2013-02-02 19:00:00,
2013-02-02 11:01:00,53.5,45.4,30.28,NW,313,1.0,-999.0,74,0.00,,,0.00,373,Wunderground v.1.15,2013-02-02 19:01:00,
2013-02-02 11:05:00,54.5,45.7,30.28,NW,315,1.0,-999.0,72,0.00,,,0.00,340,Wunderground v.1.15,2013-02-02 19:05:00,
2013-02-02 11:06:00,53.6,45.5,30.28,NW,313,1.0,-999.0,74,0.00,,,0.00,346,Wunderground v.1.15,2013-02-02 19:06:00,
2013-02-02 11:10:00,54.5,45.7,30.28,NW,315,1.0,-999.0,72,0.00,,,0.00,340,Wunderground v.1.15,2013-02-02 19:10:00,
2013-02-02 11:11:00,53.9,45.1,30.28,NW,313,1.0,-999.0,72,0.00,,,0.00,376,Wunderground v.1.15,2013-02-02 19:11:00,
2013-02-02 11:15:00,56.7,45.1,30.27,NW,315,1.0,-999.0,65,0.00,,,0.00,346,Wunderground v.1.15,2013-02-02 19:15:00,
2013-02-02 11:16:00,54.4,45.6,30.28,NW,313,1.0,-999.0,72,0.00,,,0.00,334,Wunderground v.1.15,2013-02-02 19:16:00,
2013-02-02 11:20:00,56.7,45.1,30.27,NW,315,1.0,-999.0,65,0.00,,,0.00,346,Wunderground v.1.15,2013-02-02 19:20:00,
2013-02-02 11:21:00,54.7,45.5,30.27,NW,313,1.0,-999.0,71,0.00,,,0.00,352,Wunderground v.1.15,2013-02-02 19:21:00,
2013-02-02 11:25:00,56.7,45.1,30.27,NW,315,1.0,-999.0,65,0.00,,,0.00,346,Wunderground v.1.15,2013-02-02 19:25:00,
2013-02-02 11:26:00,54.8,45.2,30.28,NW,313,1.0,-999.0,70,0.00,,,0.00,350,Wunderground v.1.15,2013-02-02 19:26:00,
2013-02-02 11:30:00,56.7,45.1,30.27,NW,315,1.0,-999.0,65,0.00,,,0.00,346,Wunderground v.1.15,2013-02-02 19:30:00,
2013-02-02 11:31:00,55.2,44.8,30.27,NW,313,1.0,-999.0,68,0.00,,,0.00,329,Wunderground v.1.15,2013-02-02 19:31:00,
2013-02-02 11:35:00,56.7,45.1,30.27,NW,315,1.0,-999.0,65,0.00,,,0.00,346,Wunderground v.1.15,2013-02-02 19:35:00,
2013-02-02 11:36:00,55.7,44.9,30.27,NW,313,1.0,-999.0,67,0.00,,,0.00,346,Wunderground v.1.15,2013-02-02 19:36:00,
2013-02-02 11:40:00,56.7,45.1,30.27,NW,315,1.0,-999.0,65,0.00,,,0.00,346,Wunderground v.1.15,2013-02-02 19:40:00,
2013-02-02 11:41:00,56.0,44.8,30.27,NW,313,1.0,-999.0,66,0.00,,,0.00,327,Wunderground v.1.15,2013-02-02 19:41:00,
2013-02-02 11:45:00,58.6,45.2,30.25,NW,315,1.0,-999.0,61,0.00,,,0.00,420,Wunderground v.1.15,2013-02-02 19:45:00,
2013-02-02 11:46:00,56.5,45.3,30.27,NW,313,1.0,-999.0,66,0.00,,,0.00,332,Wunderground v.1.15,2013-02-02 19:46:00,
2013-02-02 11:50:00,58.6,45.2,30.25,NW,315,1.0,-999.0,61,0.00,,,0.00,420,Wunderground v.1.15,2013-02-02 19:50:00,
2013-02-02 11:51:00,56.8,45.2,30.26,NW,313,2.0,-999.0,65,0.00,,,0.00,341,Wunderground v.1.15,2013-02-02 19:51:00,
2013-02-02 11:55:00,58.6,45.2,30.25,NW,315,1.0,-999.0,61,0.00,,,0.00,420,Wunderground v.1.15,2013-02-02 19:55:00,
2013-02-02 11:56:00,57.0,44.9,30.26,NW,313,1.0,-999.0,64,0.00,,,0.00,339,Wunderground v.1.15,2013-02-02 19:56:00,
2013-02-02 12:00:00,58.6,45.2,30.25,NW,315,1.0,-999.0,61,0.00,,,0.00,420,Wunderground v.1.15,2013-02-02 20:00:00,
2013-02-02 12:01:00,57.3,45.2,30.26,NW,313,1.0,-999.0,64,0.00,,,0.00,438,Wunderground v.1.15,2013-02-02 20:01:00,
2013-02-02 12:05:00,58.6,45.2,30.25,NW,315,1.0,-999.0,61,0.00,,,0.00,420,Wunderground v.1.15,2013-02-02 20:05:00,
2013-02-02 12:06:00,57.8,45.3,30.25,NW,313,1.0,-999.0,63,0.00,,,0.00,443,Wunderground v.1.15,2013-02-02 20:06:00,
2013-02-02 12:10:00,58.6,45.2,30.25,NW,315,1.0,-999.0,61,0.00,,,0.00,420,Wunderground v.1.15,2013-02-02 20:10:00,
2013-02-02 12:11:00,58.2,45.2,30.25,NW,313,1.0,-999.0,62,0.00,,,0.00,429,Wunderground v.1.15,2013-02-02 20:11:00,
2013-02-02 12:15:00,60.1,44.3,30.24,NW,315,1.0,-999.0,56,0.00,,,0.00,440,Wunderground v.1.15,2013-02-02 20:15:00,
2013-02-02 12:16:00,58.7,45.3,30.25,NW,313,1.0,-999.0,61,0.00,,,0.00,457,Wunderground v.1.15,2013-02-02 20:16:00,
2013-02-02 12:20:00,60.1,44.3,30.24,NW,315,1.0,-999.0,56,0.00,,,0.00,440,Wunderground v.1.15,2013-02-02 20:20:00,
2013-02-02 12:21:00,58.7,45.3,30.25,NW,313,1.0,-999.0,61,0.00,,,0.00,564,Wunderground v.1.15,2013-02-02 20:21:00,
2013-02-02 12:25:00,60.1,44.3,30.24,NW,315,1.0,-999.0,56,0.00,,,0.00,440,Wunderground v.1.15,2013-02-02 20:25:00,
2013-02-02 12:26:00,59.1,45.7,30.24,NW,313,1.0,-999.0,61,0.00,,,0.00,343,Wunderground v.1.15,2013-02-02 20:26:00,
2013-02-02 12:30:00,60.1,44.3,30.24,NW,315,1.0,-999.0,56,0.00,,,0.00,440,Wunderground v.1.15,2013-02-02 20:30:00,
2013-02-02 12:31:00,58.8,44.9,30.25,NW,313,1.0,-999.0,60,0.00,,,0.00,341,Wunderground v.1.15,2013-02-02 20:31:00,
2013-02-02 12:35:00,60.1,44.3,30.24,NW,315,1.0,-999.0,56,0.00,,,0.00,440,Wunderground v.1.15,2013-02-02 20:35:00,
2013-02-02 12:36:00,59.3,45.4,30.24,NW,313,1.0,-999.0,60,0.00,,,0.00,422,Wunderground v.1.15,2013-02-02 20:36:00,
2013-02-02 12:40:00,60.1,44.3,30.24,NW,315,1.0,-999.0,56,0.00,,,0.00,440,Wunderground v.1.15,2013-02-02 20:40:00,
2013-02-02 12:41:00,59.7,44.4,30.24,NW,313,1.0,-999.0,57,0.00,,,0.00,350,Wunderground v.1.15,2013-02-02 20:41:00,
2013-02-02 12:45:00,61.3,44.5,30.23,NNW,338,2.0,-999.0,54,0.00,,,0.00,580,Wunderground v.1.15,2013-02-02 20:45:00,
2013-02-02 12:46:00,60.0,44.3,30.24,NW,315,1.0,-999.0,56,0.00,,,0.00,545,Wunderground v.1.15,2013-02-02 20:46:00,
2013-02-02 12:50:00,61.3,44.5,30.23,NNW,338,2.0,-999.0,54,0.00,,,0.00,580,Wunderground v.1.15,2013-02-02 20:50:00,
2013-02-02 12:51:00,60.1,44.3,30.24,NNW,338,1.0,-999.0,56,0.00,,,0.00,519,Wunderground v.1.15,2013-02-02 20:51:00,
2013-02-02 12:55:00,61.3,44.5,30.23,NNW,338,2.0,-999.0,54,0.00,,,0.00,580,Wunderground v.1.15,2013-02-02 20:55:00,
2013-02-02 12:56:00,60.4,44.6,30.24,North,355,1.0,-999.0,56,0.00,,,0.00,548,Wunderground v.1.15,2013-02-02 20:56:00,
2013-02-02 13:00:00,61.3,44.5,30.23,NNW,338,2.0,-999.0,54,0.00,,,0.00,580,Wunderground v.1.15,2013-02-02 21:00:00,
2013-02-02 13:01:00,60.7,44.4,30.24,NNW,348,1.0,-999.0,55,0.00,,,0.00,606,Wunderground v.1.15,2013-02-02 21:01:00,
2013-02-02 13:05:00,61.3,44.5,30.23,NNW,338,2.0,-999.0,54,0.00,,,0.00,580,Wunderground v.1.15,2013-02-02 21:05:00,
2013-02-02 13:06:00,61.2,44.9,30.23,NNW,344,1.0,-999.0,55,0.00,,,0.00,624,Wunderground v.1.15,2013-02-02 21:06:00,
2013-02-02 13:10:00,61.3,44.5,30.23,NNW,338,2.0,-999.0,54,0.00,,,0.00,580,Wunderground v.1.15,2013-02-02 21:10:00,
2013-02-02 13:11:00,61.3,45.0,30.23,North,355,1.0,-999.0,55,0.00,,,0.00,559,Wunderground v.1.15,2013-02-02 21:11:00,
2013-02-02 13:15:00,61.8,45.0,30.21,North,0,1.0,-999.0,54,0.00,,,0.00,385,Wunderground v.1.15,2013-02-02 21:15:00,
2013-02-02 13:16:00,61.4,44.6,30.23,NW,315,2.0,-999.0,54,0.00,,,0.00,635,Wunderground v.1.15,2013-02-02 21:16:00,
2013-02-02 13:20:00,61.8,45.0,30.21,North,0,1.0,-999.0,54,0.00,,,0.00,385,Wunderground v.1.15,2013-02-02 21:20:00,
2013-02-02 13:21:00,61.1,44.8,30.23,NNE,22,2.0,-999.0,55,0.00,,,0.00,527,Wunderground v.1.15,2013-02-02 21:21:00,
2013-02-02 13:25:00,61.8,45.0,30.21,North,0,1.0,-999.0,54,0.00,,,0.00,385,Wunderground v.1.15,2013-02-02 21:25:00,
2013-02-02 13:26:00,61.5,44.7,30.22,NW,321,2.0,-999.0,54,0.00,,,0.00,357,Wunderground v.1.15,2013-02-02 21:26:00,
2013-02-02 13:30:00,61.8,45.0,30.21,North,0,1.0,-999.0,54,0.00,,,0.00,385,Wunderground v.1.15,2013-02-02 21:30:00,
2013-02-02 13:31:00,61.7,44.9,30.22,North,355,2.0,-999.0,54,0.00,,,0.00,325,Wunderground v.1.15,2013-02-02 21:31:00,
2013-02-02 13:35:00,61.8,45.0,30.21,North,0,1.0,-999.0,54,0.00,,,0.00,385,Wunderground v.1.15,2013-02-02 21:35:00,
2013-02-02 13:36:00,61.6,44.8,30.22,North,360,1.0,-999.0,54,0.00,,,0.00,355,Wunderground v.1.15,2013-02-02 21:36:00,
2013-02-02 13:40:00,61.8,45.0,30.21,North,0,1.0,-999.0,54,0.00,,,0.00,385,Wunderground v.1.15,2013-02-02 21:40:00,
2013-02-02 13:41:00,62.1,45.2,30.21,NE,42,1.0,-999.0,54,0.00,,,0.00,371,Wunderground v.1.15,2013-02-02 21:41:00,
2013-02-02 13:45:00,62.5,45.6,30.20,North,0,1.0,-999.0,54,0.00,,,0.00,312,Wunderground v.1.15,2013-02-02 21:45:00,
2013-02-02 13:46:00,61.9,45.1,30.21,NE,45,1.0,-999.0,54,0.00,,,0.00,439,Wunderground v.1.15,2013-02-02 21:46:00,
2013-02-02 13:50:00,62.5,45.6,30.20,North,0,1.0,-999.0,54,0.00,,,0.00,312,Wunderground v.1.15,2013-02-02 21:50:00,
2013-02-02 13:51:00,62.2,44.9,30.21,NE,45,1.0,-999.0,53,0.00,,,0.00,415,Wunderground v.1.15,2013-02-02 21:51:00,
2013-02-02 13:55:00,62.5,45.6,30.20,North,0,1.0,-999.0,54,0.00,,,0.00,312,Wunderground v.1.15,2013-02-02 21:55:00,
2013-02-02 13:56:00,61.9,45.1,30.21,NE,42,1.0,-999.0,54,0.00,,,0.00,260,Wunderground v.1.15,2013-02-02 21:56:00,
2013-02-02 14:00:00,62.5,45.6,30.20,North,0,1.0,-999.0,54,0.00,,,0.00,312,Wunderground v.1.15,2013-02-02 22:00:00,
2013-02-02 14:01:00,62.2,45.3,30.20,North,360,1.0,-999.0,54,0.00,,,0.00,434,Wunderground v.1.15,2013-02-02 22:01:00,
2013-02-02 14:05:00,62.5,45.6,30.20,North,0,1.0,-999.0,54,0.00,,,0.00,312,Wunderground v.1.15,2013-02-02 22:05:00,
2013-02-02 14:06:00,62.5,45.6,30.20,North,5,1.0,-999.0,54,0.00,,,0.00,264,Wunderground v.1.15,2013-02-02 22:06:00,
2013-02-02 14:10:00,62.5,45.6,30.20,North,0,1.0,-999.0,54,0.00,,,0.00,312,Wunderground v.1.15,2013-02-02 22:10:00,
2013-02-02 14:11:00,62.0,45.6,30.20,North,9,1.0,-999.0,55,0.00,,,0.00,265,Wunderground v.1.15,2013-02-02 22:11:00,
2013-02-02 14:15:00,63.7,45.7,30.20,NNE,23,1.0,-999.0,52,0.00,,,0.00,351,Wunderground v.1.15,2013-02-02 22:15:00,
2013-02-02 14:16:00,62.5,45.6,30.20,NNE,33,1.0,-999.0,54,0.00,,,0.00,274,Wunderground v.1.15,2013-02-02 22:16:00,
2013-02-02 14:20:00,63.7,45.7,30.20,NNE,23,1.0,-999.0,52,0.00,,,0.00,351,Wunderground v.1.15,2013-02-02 22:20:00,
2013-02-02 14:21:00,62.3,45.4,30.20,NE,34,1.0,-999.0,54,0.00,,,0.00,221,Wunderground v.1.15,2013-02-02 22:21:00,
2013-02-02 14:25:00,63.7,45.7,30.20,NNE,23,1.0,-999.0,52,0.00,,,0.00,351,Wunderground v.1.15,2013-02-02 22:25:00,
2013-02-02 14:26:00,62.6,45.7,30.20,NNE,33,0.0,-999.0,54,0.00,,,0.00,304,Wunderground v.1.15,2013-02-02 22:26:00,
2013-02-02 14:30:00,63.7,45.7,30.20,NNE,23,1.0,-999.0,52,0.00,,,0.00,351,Wunderground v.1.15,2013-02-02 22:30:00,
2013-02-02 14:31:00,62.7,45.3,30.20,NNE,29,1.0,-999.0,53,0.00,,,0.00,561,Wunderground v.1.15,2013-02-02 22:31:00,
2013-02-02 14:35:00,63.7,45.7,30.20,NNE,23,1.0,-999.0,52,0.00,,,0.00,351,Wunderground v.1.15,2013-02-02 22:35:00,
2013-02-02 14:36:00,63.1,45.7,30.20,NNE,13,1.0,-999.0,53,0.00,,,0.00,441,Wunderground v.1.15,2013-02-02 22:36:00,
2013-02-02 14:40:00,63.7,45.7,30.20,NNE,23,1.0,-999.0,52,0.00,,,0.00,351,Wunderground v.1.15,2013-02-02 22:40:00,
2013-02-02 14:41:00,63.4,45.5,30.20,NNE,13,1.0,-999.0,52,0.00,,,0.00,545,Wunderground v.1.15,2013-02-02 22:41:00,
2013-02-02 14:45:00,63.3,45.9,30.20,NW,315,1.0,-999.0,53,0.00,,,0.00,285,Wunderground v.1.15,2013-02-02 22:45:00,
2013-02-02 14:46:00,63.7,45.7,30.20,NNE,13,0.0,-999.0,52,0.00,,,0.00,243,Wunderground v.1.15,2013-02-02 22:46:00,
2013-02-02 14:50:00,63.3,45.9,30.20,NW,315,1.0,-999.0,53,0.00,,,0.00,285,Wunderground v.1.15,2013-02-02 22:50:00,
2013-02-02 14:51:00,63.8,45.8,30.20,NW,321,1.0,-999.0,52,0.00,,,0.00,413,Wunderground v.1.15,2013-02-02 22:51:00,
2013-02-02 14:55:00,63.3,45.9,30.20,NW,315,1.0,-999.0,53,0.00,,,0.00,285,Wunderground v.1.15,2013-02-02 22:55:00,
2013-02-02 14:56:00,64.1,46.1,30.20,NW,321,1.0,-999.0,52,0.00,,,0.00,432,Wunderground v.1.15,2013-02-02 22:56:00,
2013-02-02 15:00:00,63.3,45.9,30.20,NW,315,1.0,-999.0,53,0.00,,,0.00,285,Wunderground v.1.15,2013-02-02 23:00:00,
2013-02-02 15:01:00,63.9,45.9,30.20,NW,321,0.0,-999.0,52,0.00,,,0.00,287,Wunderground v.1.15,2013-02-02 23:01:00,
2013-02-02 15:05:00,63.3,45.9,30.20,NW,315,1.0,-999.0,53,0.00,,,0.00,285,Wunderground v.1.15,2013-02-02 23:05:00,
2013-02-02 15:06:00,63.3,45.9,30.20,NW,321,0.0,-999.0,53,0.00,,,0.00,209,Wunderground v.1.15,2013-02-02 23:06:00,
2013-02-02 15:10:00,63.3,45.9,30.20,NW,315,1.0,-999.0,53,0.00,,,0.00,285,Wunderground v.1.15,2013-02-02 23:10:00,
2013-02-02 15:11:00,63.5,46.1,30.20,NW,320,1.0,-999.0,53,0.00,,,0.00,216,Wunderground v.1.15,2013-02-02 23:11:00,
2013-02-02 15:15:00,63.0,45.6,30.19,NW,315,1.0,-999.0,53,0.00,,,0.00,184,Wunderground v.1.15,2013-02-02 23:15:00,
2013-02-02 15:16:00,63.3,45.9,30.20,NW,320,1.0,-999.0,53,0.00,,,0.00,258,Wunderground v.1.15,2013-02-02 23:16:00,
2013-02-02 15:20:00,63.0,45.6,30.19,NW,315,1.0,-999.0,53,0.00,,,0.00,184,Wunderground v.1.15,2013-02-02 23:20:00,
2013-02-02 15:21:00,63.4,46.0,30.20,NW,319,1.0,-999.0,53,0.00,,,0.00,185,Wunderground v.1.15,2013-02-02 23:21:00,
2013-02-02 15:25:00,63.0,45.6,30.19,NW,315,1.0,-999.0,53,0.00,,,0.00,184,Wunderground v.1.15,2013-02-02 23:25:00,
2013-02-02 15:26:00,63.2,45.8,30.20,NW,319,1.0,-999.0,53,0.00,,,0.00,267,Wunderground v.1.15,2013-02-02 23:26:00,
2013-02-02 15:30:00,63.0,45.6,30.19,NW,315,1.0,-999.0,53,0.00,,,0.00,184,Wunderground v.1.15,2013-02-02 23:30:00,
2013-02-02 15:31:00,63.2,45.3,30.19,NW,319,1.0,-999.0,52,0.00,,,0.00,199,Wunderground v.1.15,2013-02-02 23:31:00,
2013-02-02 15:35:00,63.0,45.6,30.19,NW,315,1.0,-999.0,53,0.00,,,0.00,184,Wunderground v.1.15,2013-02-02 23:35:00,
2013-02-02 15:36:00,63.3,45.4,30.19,NW,319,1.0,-999.0,52,0.00,,,0.00,171,Wunderground v.1.15,2013-02-02 23:36:00,
2013-02-02 15:40:00,63.0,45.6,30.19,NW,315,1.0,-999.0,53,0.00,,,0.00,184,Wunderground v.1.15,2013-02-02 23:40:00,
2013-02-02 15:41:00,63.2,45.3,30.19,NW,319,1.0,-999.0,52,0.00,,,0.00,146,Wunderground v.1.15,2013-02-02 23:41:00,
2013-02-02 15:45:00,64.1,44.5,30.18,NW,315,0.0,-999.0,49,0.00,,,0.00,149,Wunderground v.1.15,2013-02-02 23:45:00,
2013-02-02 15:46:00,63.0,45.6,30.19,NW,319,1.0,-999.0,53,0.00,,,0.00,142,Wunderground v.1.15,2013-02-02 23:46:00,
2013-02-02 15:50:00,64.1,44.5,30.18,NW,315,0.0,-999.0,49,0.00,,,0.00,149,Wunderground v.1.15,2013-02-02 23:50:00,
2013-02-02 15:51:00,63.1,45.2,30.19,NW,319,0.0,-999.0,52,0.00,,,0.00,130,Wunderground v.1.15,2013-02-02 23:51:00,
2013-02-02 15:55:00,64.1,44.5,30.18,NW,315,0.0,-999.0,49,0.00,,,0.00,149,Wunderground v.1.15,2013-02-02 23:55:00,
2013-02-02 15:56:00,63.1,45.2,30.19,NW,319,0.0,-999.0,52,0.00,,,0.00,123,Wunderground v.1.15,2013-02-02 23:56:00,
2013-02-02 16:00:00,64.1,44.5,30.18,NW,315,0.0,-999.0,49,0.00,,,0.00,149,Wunderground v.1.15,2013-02-03 00:00:00,
2013-02-02 16:01:00,63.1,44.7,30.19,NW,319,0.0,-999.0,51,0.00,,,0.00,123,Wunderground v.1.15,2013-02-03 00:01:00,
2013-02-02 16:05:00,64.1,44.5,30.18,NW,315,0.0,-999.0,49,0.00,,,0.00,149,Wunderground v.1.15,2013-02-03 00:05:00,
2013-02-02 16:06:00,63.2,44.2,30.19,NW,319,0.0,-999.0,50,0.00,,,0.00,239,Wunderground v.1.15,2013-02-03 00:06:00,
2013-02-02 16:10:00,64.1,44.5,30.18,NW,315,0.0,-999.0,49,0.00,,,0.00,149,Wunderground v.1.15,2013-02-03 00:10:00,
2013-02-02 16:11:00,63.7,44.7,30.19,NW,319,0.0,-999.0,50,0.00,,,0.00,237,Wunderground v.1.15,2013-02-03 00:11:00,
2013-02-02 16:15:00,63.5,45.0,30.18,NW,315,0.0,-999.0,51,0.00,,,0.00,58,Wunderground v.1.15,2013-02-03 00:15:00,
2013-02-02 16:17:00,64.0,44.4,30.18,NW,319,0.0,-999.0,49,0.00,,,0.00,90,Wunderground v.1.15,2013-02-03 00:17:00,
2013-02-02 16:20:00,63.5,45.0,30.18,NW,315,0.0,-999.0,51,0.00,,,0.00,58,Wunderground v.1.15,2013-02-03 00:20:00,
2013-02-02 16:22:00,64.4,44.8,30.18,NW,319,0.0,-999.0,49,0.00,,,0.00,79,Wunderground v.1.15,2013-02-03 00:22:00,
2013-02-02 16:25:00,63.5,45.0,30.18,NW,315,0.0,-999.0,51,0.00,,,0.00,58,Wunderground v.1.15,2013-02-03 00:25:00,
2013-02-02 16:27:00,64.1,44.5,30.18,NW,319,0.0,-999.0,49,0.00,,,0.00,70,Wunderground v.1.15,2013-02-03 00:27:00,
2013-02-02 16:30:00,63.5,45.0,30.18,NW,315,0.0,-999.0,51,0.00,,,0.00,58,Wunderground v.1.15,2013-02-03 00:30:00,
2013-02-02 16:32:00,63.9,44.4,30.18,NW,319,0.0,-999.0,49,0.00,,,0.00,60,Wunderground v.1.15,2013-02-03 00:32:00,
2013-02-02 16:35:00,63.5,45.0,30.18,NW,315,0.0,-999.0,51,0.00,,,0.00,58,Wunderground v.1.15,2013-02-03 00:35:00,
2013-02-02 16:37:00,63.8,44.3,30.18,NW,319,0.0,-999.0,49,0.00,,,0.00,49,Wunderground v.1.15,2013-02-03 00:37:00,
2013-02-02 16:40:00,63.5,45.0,30.18,NW,315,0.0,-999.0,51,0.00,,,0.00,58,Wunderground v.1.15,2013-02-03 00:40:00,
2013-02-02 16:42:00,63.6,44.6,30.18,NW,319,0.0,-999.0,50,0.00,,,0.00,42,Wunderground v.1.15,2013-02-03 00:42:00,
2013-02-02 16:45:00,62.1,44.8,30.18,N/A,-737280,0.0,-999.0,53,0.00,,,0.00,23,Wunderground v.1.15,2013-02-03 00:45:00,
2013-02-02 16:47:00,63.6,44.6,30.18,NW,319,0.0,-999.0,50,0.00,,,0.00,35,Wunderground v.1.15,2013-02-03 00:47:00,
2013-02-02 16:50:00,62.1,44.8,30.18,N/A,-737280,0.0,-999.0,53,0.00,,,0.00,23,Wunderground v.1.15,2013-02-03 00:50:00,
2013-02-02 16:52:00,63.3,45.4,30.18,NW,319,0.0,-999.0,52,0.00,,,0.00,33,Wunderground v.1.15,2013-02-03 00:52:00,
2013-02-02 16:55:00,62.1,44.8,30.18,N/A,-737280,0.0,-999.0,53,0.00,,,0.00,23,Wunderground v.1.15,2013-02-03 00:55:00,
2013-02-02 16:57:00,63.2,45.3,30.19,NW,319,0.0,-999.0,52,0.00,,,0.00,28,Wunderground v.1.15,2013-02-03 00:57:00,
2013-02-02 17:00:00,62.1,44.8,30.18,N/A,-737280,0.0,-999.0,53,0.00,,,0.00,23,Wunderground v.1.15,2013-02-03 01:00:00,
2013-02-02 17:02:00,62.9,45.0,30.19,NW,319,0.0,-999.0,52,0.00,,,0.00,25,Wunderground v.1.15,2013-02-03 01:02:00,
2013-02-02 17:05:00,62.1,44.8,30.18,N/A,-737280,0.0,-999.0,53,0.00,,,0.00,23,Wunderground v.1.15,2013-02-03 01:05:00,
2013-02-02 17:07:00,62.8,44.9,30.18,NW,319,0.0,-999.0,52,0.00,,,0.00,19,Wunderground v.1.15,2013-02-03 01:07:00,
2013-02-02 17:10:00,62.1,44.8,30.18,N/A,-737280,0.0,-999.0,53,0.00,,,0.00,23,Wunderground v.1.15,2013-02-03 01:10:00,
2013-02-02 17:12:00,62.4,44.5,30.18,NW,319,0.0,-999.0,52,0.00,,,0.00,16,Wunderground v.1.15,2013-02-03 01:12:00,
2013-02-02 17:15:00,58.8,45.8,30.19,NW,315,0.0,-999.0,62,0.00,,,0.00,5,Wunderground v.1.15,2013-02-03 01:15:00,
2013-02-02 17:17:00,62.2,44.9,30.18,NW,319,0.0,-999.0,53,0.00,,,0.00,14,Wunderground v.1.15,2013-02-03 01:17:00,
2013-02-02 17:20:00,58.8,45.8,30.19,NW,315,0.0,-999.0,62,0.00,,,0.00,5,Wunderground v.1.15,2013-02-03 01:20:00,
2013-02-02 17:22:00,61.8,45.0,30.18,NW,319,0.0,-999.0,54,0.00,,,0.00,11,Wunderground v.1.15,2013-02-03 01:22:00,
2013-02-02 17:25:00,58.8,45.8,30.19,NW,315,0.0,-999.0,62,0.00,,,0.00,5,Wunderground v.1.15,2013-02-03 01:25:00,
2013-02-02 17:27:00,61.4,44.6,30.19,NW,319,0.0,-999.0,54,0.00,,,0.00,7,Wunderground v.1.15,2013-02-03 01:27:00,
2013-02-02 17:30:00,58.8,45.8,30.19,NW,315,0.0,-999.0,62,0.00,,,0.00,5,Wunderground v.1.15,2013-02-03 01:30:00,
2013-02-02 17:32:00,60.6,44.8,30.19,NW,319,0.0,-999.0,56,0.00,,,0.00,5,Wunderground v.1.15,2013-02-03 01:32:00,
2013-02-02 17:37:00,60.2,45.4,30.19,NW,319,0.0,-999.0,58,0.00,,,0.00,5,Wunderground v.1.15,2013-02-03 01:37:00,
2013-02-02 17:40:00,58.8,45.8,30.19,NW,315,0.0,-999.0,62,0.00,,,0.00,5,Wunderground v.1.15,2013-02-03 01:40:00,
2013-02-02 17:42:00,59.5,45.6,30.19,NW,319,0.0,-999.0,60,0.00,,,0.00,0,Wunderground v.1.15,2013-02-03 01:42:00,
2013-02-02 17:45:00,57.9,46.2,30.20,N/A,-737280,0.0,-999.0,65,0.00,,,0.00,0,Wunderground v.1.15,2013-02-03 01:45:00,
2013-02-02 17:47:00,58.9,45.9,30.19,NW,319,0.0,-999.0,62,0.00,,,0.00,0,Wunderground v.1.15,2013-02-03 01:47:00,
2013-02-02 17:50:00,57.9,46.2,30.20,N/A,-737280,0.0,-999.0,65,0.00,,,0.00,0,Wunderground v.1.15,2013-02-03 01:50:00,
2013-02-02 17:52:00,58.5,45.9,30.19,NW,319,0.0,-999.0,63,0.00,,,0.00,0,Wunderground v.1.15,2013-02-03 01:52:00,
2013-02-02 17:55:00,57.9,46.2,30.20,N/A,-737280,0.0,-999.0,65,0.00,,,0.00,0,Wunderground v.1.15,2013-02-03 01:55:00,
2013-02-02 17:57:00,58.5,45.9,30.19,NW,319,0.0,-999.0,63,0.00,,,0.00,0,Wunderground v.1.15,2013-02-03 01:57:00,
2013-02-02 18:00:00,57.9,46.2,30.20,N/A,-737280,0.0,-999.0,65,0.00,,,0.00,0,Wunderground v.1.15,2013-02-03 02:00:00,
2013-02-02 18:02:00,58.1,46.0,30.19,NW,319,0.0,-999.0,64,0.00,,,0.00,0,Wunderground v.1.15,2013-02-03 02:02:00,
2013-02-02 18:05:00,57.9,46.2,30.20,N/A,-737280,0.0,-999.0,65,0.00,,,0.00,0,Wunderground v.1.15,2013-02-03 02:05:00,
2013-02-02 18:07:00,58.0,45.9,30.19,NW,319,0.0,-999.0,64,0.00,,,0.00,0,Wunderground v.1.15,2013-02-03 02:07:00,
2013-02-02 18:10:00,57.9,46.2,30.20,N/A,-737280,0.0,-999.0,65,0.00,,,0.00,0,Wunderground v.1.15,2013-02-03 02:10:00,
2013-02-02 18:12:00,57.9,46.2,30.20,NW,319,0.0,-999.0,65,0.00,,,0.00,0,Wunderground v.1.15,2013-02-03 02:12:00,
2013-02-02 18:15:00,56.2,45.8,30.19,NW,315,0.0,-999.0,68,0.00,,,0.00,0,Wunderground v.1.15,2013-02-03 02:15:00,
2013-02-02 18:17:00,57.9,46.2,30.20,NW,319,0.0,-999.0,65,0.00,,,0.00,0,Wunderground v.1.15,2013-02-03 02:17:00,
2013-02-02 18:20:00,56.2,45.8,30.19,NW,315,0.0,-999.0,68,0.00,,,0.00,0,Wunderground v.1.15,2013-02-03 02:20:00,
2013-02-02 18:22:00,57.6,45.9,30.20,NW,319,0.0,-999.0,65,0.00,,,0.00,0,Wunderground v.1.15,2013-02-03 02:22:00,
2013-02-02 18:25:00,56.2,45.8,30.19,NW,315,0.0,-999.0,68,0.00,,,0.00,0,Wunderground v.1.15,2013-02-03 02:25:00,
2013-02-02 18:26:00,56.9,45.7,30.19,NW,319,0.0,-999.0,66,0.00,,,0.00,0,Wunderground v.1.15,2013-02-03 02:26:00,
2013-02-02 18:30:00,56.2,45.8,30.19,NW,315,0.0,-999.0,68,0.00,,,0.00,0,Wunderground v.1.15,2013-02-03 02:30:00,
2013-02-02 18:32:00,56.6,45.8,30.19,NW,319,0.0,-999.0,67,0.00,,,0.00,0,Wunderground v.1.15,2013-02-03 02:32:00,
2013-02-02 18:35:00,56.2,45.8,30.19,NW,315,0.0,-999.0,68,0.00,,,0.00,0,Wunderground v.1.15,2013-02-03 02:35:00,
2013-02-02 18:37:00,56.3,45.5,30.19,NW,319,0.0,-999.0,67,0.00,,,0.00,0,Wunderground v.1.15,2013-02-03 02:37:00,
2013-02-02 18:40:00,56.2,45.8,30.19,NW,315,0.0,-999.0,68,0.00,,,0.00,0,Wunderground v.1.15,2013-02-03 02:40:00,
2013-02-02 18:42:00,56.9,45.7,30.19,NW,319,0.0,-999.0,66,0.00,,,0.00,0,Wunderground v.1.15,2013-02-03 02:42:00,
2013-02-02 18:45:00,54.4,45.2,30.20,N/A,-737280,0.0,-999.0,71,0.00,,,0.00,0,Wunderground v.1.15,2013-02-03 02:45:00,
2013-02-02 18:47:00,56.1,45.7,30.19,NW,319,0.0,-999.0,68,0.00,,,0.00,0,Wunderground v.1.15,2013-02-03 02:47:00,
2013-02-02 18:50:00,54.4,45.2,30.20,N/A,-737280,0.0,-999.0,71,0.00,,,0.00,0,Wunderground v.1.15,2013-02-03 02:50:00,
2013-02-02 18:52:00,55.8,45.4,30.19,NW,319,0.0,-999.0,68,0.00,,,0.00,0,Wunderground v.1.15,2013-02-03 02:52:00,
2013-02-02 18:55:00,54.4,45.2,30.20,N/A,-737280,0.0,-999.0,71,0.00,,,0.00,0,Wunderground v.1.15,2013-02-03 02:55:00,
2013-02-02 18:57:00,55.4,45.4,30.19,NW,319,0.0,-999.0,69,0.00,,,0.00,0,Wunderground v.1.15,2013-02-03 02:57:00,
2013-02-02 19:00:00,54.4,45.2,30.20,N/A,-737280,0.0,-999.0,71,0.00,,,0.00,0,Wunderground v.1.15,2013-02-03 03:00:00,
2013-02-02 19:02:00,55.1,45.5,30.20,NW,319,0.0,-999.0,70,0.00,,,0.00,0,Wunderground v.1.15,2013-02-03 03:02:00,
2013-02-02 19:05:00,54.4,45.2,30.20,N/A,-737280,0.0,-999.0,71,0.00,,,0.00,0,Wunderground v.1.15,2013-02-03 03:05:00,
2013-02-02 19:07:00,54.9,45.7,30.20,NW,319,0.0,-999.0,71,0.00,,,0.00,0,Wunderground v.1.15,2013-02-03 03:07:00,
2013-02-02 19:10:00,54.4,45.2,30.20,N/A,-737280,0.0,-999.0,71,0.00,,,0.00,0,Wunderground v.1.15,2013-02-03 03:10:00,
2013-02-02 19:12:00,55.0,45.8,30.20,NW,319,0.0,-999.0,71,0.00,,,0.00,0,Wunderground v.1.15,2013-02-03 03:12:00,
2013-02-02 19:15:00,53.0,46.3,30.20,NW,315,0.0,-999.0,78,0.00,,,0.00,0,Wunderground v.1.15,2013-02-03 03:15:00,
2013-02-02 19:17:00,54.6,45.4,30.20,NW,319,0.0,-999.0,71,0.00,,,0.00,0,Wunderground v.1.15,2013-02-03 03:17:00,
2013-02-02 19:20:00,53.0,46.3,30.20,NW,315,0.0,-999.0,78,0.00,,,0.00,0,Wunderground v.1.15,2013-02-03 03:20:00,
2013-02-02 19:22:00,53.6,45.2,30.20,NW,319,0.0,-999.0,73,0.00,,,0.00,0,Wunderground v.1.15,2013-02-03 03:22:00,
2013-02-02 19:25:00,53.0,46.3,30.20,NW,315,0.0,-999.0,78,0.00,,,0.00,0,Wunderground v.1.15,2013-02-03 03:25:00,
2013-02-02 19:27:00,53.1,45.0,30.20,NW,319,0.0,-999.0,74,0.00,,,0.00,0,Wunderground v.1.15,2013-02-03 03:27:00,
2013-02-02 19:30:00,53.0,46.3,30.20,NW,315,0.0,-999.0,78,0.00,,,0.00,0,Wunderground v.1.15,2013-02-03 03:30:00,
2013-02-02 19:32:00,53.0,45.3,30.20,NW,319,0.0,-999.0,75,0.00,,,0.00,0,Wunderground v.1.15,2013-02-03 03:32:00,
2013-02-02 19:35:00,53.0,46.3,30.20,NW,315,0.0,-999.0,78,0.00,,,0.00,0,Wunderground v.1.15,2013-02-03 03:35:00,
2013-02-02 19:37:00,52.8,45.4,30.20,NW,319,0.0,-999.0,76,0.00,,,0.00,0,Wunderground v.1.15,2013-02-03 03:37:00,
2013-02-02 19:40:00,53.0,46.3,30.20,NW,315,0.0,-999.0,78,0.00,,,0.00,0,Wunderground v.1.15,2013-02-03 03:40:00,
2013-02-02 19:42:00,52.9,45.5,30.20,NW,319,0.0,-999.0,76,0.00,,,0.00,0,Wunderground v.1.15,2013-02-03 03:42:00,
2013-02-02 19:45:00,51.7,46.7,30.20,NW,315,0.0,-999.0,83,0.00,,,0.00,0,Wunderground v.1.15,2013-02-03 03:45:00,
2013-02-02 19:47:00,53.0,46.3,30.20,NW,319,0.0,-999.0,78,0.00,,,0.00,0,Wunderground v.1.15,2013-02-03 03:47:00,
2013-02-02 19:50:00,51.7,46.7,30.20,NW,315,0.0,-999.0,83,0.00,,,0.00,0,Wunderground v.1.15,2013-02-03 03:50:00,
2013-02-02 19:52:00,52.9,46.6,30.20,NW,319,0.0,-999.0,79,0.00,,,0.00,0,Wunderground v.1.15,2013-02-03 03:52:00,
2013-02-02 19:55:00,51.7,46.7,30.20,NW,315,0.0,-999.0,83,0.00,,,0.00,0,Wunderground v.1.15,2013-02-03 03:55:00,
2013-02-02 19:57:00,52.7,46.7,30.20,NW,319,0.0,-999.0,80,0.00,,,0.00,0,Wunderground v.1.15,2013-02-03 03:57:00,
2013-02-02 20:00:00,51.7,46.7,30.20,NW,315,0.0,-999.0,83,0.00,,,0.00,0,Wunderground v.1.15,2013-02-03 04:00:00,
2013-02-02 20:02:00,52.4,46.4,30.20,NW,319,0.0,-999.0,80,0.00,,,0.00,0,Wunderground v.1.15,2013-02-03 04:02:00,
2013-02-02 20:05:00,51.7,46.7,30.20,NW,315,0.0,-999.0,83,0.00,,,0.00,0,Wunderground v.1.15,2013-02-03 04:05:00,
2013-02-02 20:07:00,51.8,46.2,30.20,NW,319,0.0,-999.0,81,0.00,,,0.00,0,Wunderground v.1.15,2013-02-03 04:07:00,
2013-02-02 20:10:00,51.7,46.7,30.20,NW,315,0.0,-999.0,83,0.00,,,0.00,0,Wunderground v.1.15,2013-02-03 04:10:00,
2013-02-02 20:12:00,51.7,46.4,30.20,NW,319,0.0,-999.0,82,0.00,,,0.00,0,Wunderground v.1.15,2013-02-03 04:12:00,
2013-02-02 20:15:00,51.0,46.3,30.20,NW,315,0.0,-999.0,84,0.00,,,0.00,0,Wunderground v.1.15,2013-02-03 04:15:00,
2013-02-02 20:17:00,51.7,46.7,30.20,NW,319,0.0,-999.0,83,0.00,,,0.00,0,Wunderground v.1.15,2013-02-03 04:17:00,
2013-02-02 20:20:00,51.0,46.3,30.20,NW,315,0.0,-999.0,84,0.00,,,0.00,0,Wunderground v.1.15,2013-02-03 04:20:00,
2013-02-02 20:22:00,51.4,46.4,30.20,NW,319,0.0,-999.0,83,0.00,,,0.00,0,Wunderground v.1.15,2013-02-03 04:22:00,
2013-02-02 20:25:00,51.0,46.3,30.20,NW,315,0.0,-999.0,84,0.00,,,0.00,0,Wunderground v.1.15,2013-02-03 04:25:00,
2013-02-02 20:27:00,51.3,46.6,30.20,NW,319,0.0,-999.0,84,0.00,,,0.00,0,Wunderground v.1.15,2013-02-03 04:27:00,
2013-02-02 20:30:00,51.0,46.3,30.20,NW,315,0.0,-999.0,84,0.00,,,0.00,0,Wunderground v.1.15,2013-02-03 04:30:00,
2013-02-02 20:32:00,51.3,46.6,30.20,NW,319,0.0,-999.0,84,0.00,,,0.00,0,Wunderground v.1.15,2013-02-03 04:32:00,
2013-02-02 20:35:00,51.0,46.3,30.20,NW,315,0.0,-999.0,84,0.00,,,0.00,0,Wunderground v.1.15,2013-02-03 04:35:00,
2013-02-02 20:37:00,51.1,46.4,30.20,NW,319,0.0,-999.0,84,0.00,,,0.00,0,Wunderground v.1.15,2013-02-03 04:37:00,
2013-02-02 20:40:00,51.0,46.3,30.20,NW,315,0.0,-999.0,84,0.00,,,0.00,0,Wunderground v.1.15,2013-02-03 04:40:00,
2013-02-02 20:42:00,51.2,46.5,30.20,NW,319,0.0,-999.0,84,0.00,,,0.00,0,Wunderground v.1.15,2013-02-03 04:42:00,
2013-02-02 20:43:00,50.2,45.9,30.20,NW,319,0.0,-999.0,85,0.00,,,0.00,0,Wunderground v.1.15,2013-02-03 04:43:00,
2013-02-02 20:44:00,50.2,45.9,30.20,NW,319,0.0,-999.0,85,0.00,,,0.00,0,Wunderground v.1.15,2013-02-03 04:44:00,
2013-02-02 20:45:00,50.2,45.9,30.20,NW,319,0.0,-999.0,85,0.00,,,0.00,0,Wunderground v.1.15,2013-02-03 04:45:00,
2013-02-02 20:46:00,50.1,45.8,30.20,NW,319,0.0,-999.0,85,0.00,,,0.00,0,Wunderground v.1.15,2013-02-03 04:46:00,
2013-02-02 20:47:00,51.0,46.3,30.20,NW,319,0.0,-999.0,84,0.00,,,0.00,0,Wunderground v.1.15,2013-02-03 04:47:00,
2013-02-02 20:48:00,50.1,45.8,30.20,NW,319,0.0,-999.0,85,0.00,,,0.00,0,Wunderground v.1.15,2013-02-03 04:48:00,
2013-02-02 20:49:00,50.1,45.8,30.20,NW,319,0.0,-999.0,85,0.00,,,0.00,0,Wunderground v.1.15,2013-02-03 04:49:00,
2013-02-02 20:50:00,50.0,45.7,30.20,NW,319,0.0,-999.0,85,0.00,,,0.00,0,Wunderground v.1.15,2013-02-03 04:50:00,
2013-02-02 20:51:00,50.0,45.7,30.20,NW,319,0.0,-999.0,85,0.00,,,0.00,0,Wunderground v.1.15,2013-02-03 04:51:00,
2013-02-02 20:52:00,50.9,46.2,30.20,NW,319,0.0,-999.0,84,0.00,,,0.00,0,Wunderground v.1.15,2013-02-03 04:52:00,
2013-02-02 20:55:00,49.6,45.6,30.20,NW,315,0.0,-999.0,86,0.00,,,0.00,0,Wunderground v.1.15,2013-02-03 04:55:00,
2013-02-02 20:57:00,50.5,45.8,30.20,NW,319,0.0,-999.0,84,0.00,,,0.00,0,Wunderground v.1.15,2013-02-03 04:57:00,
2013-02-02 21:00:00,49.6,45.6,30.20,NW,315,0.0,-999.0,86,0.00,,,0.00,0,Wunderground v.1.15,2013-02-03 05:00:00,
2013-02-02 21:05:00,49.6,45.6,30.20,NW,315,0.0,-999.0,86,0.00,,,0.00,0,Wunderground v.1.15,2013-02-03 05:05:00,
2013-02-02 21:06:00,50.1,45.8,30.20,NW,319,0.0,-999.0,85,0.00,,,0.00,0,Wunderground v.1.15,2013-02-03 05:06:00,
2013-02-02 21:10:00,49.6,45.6,30.20,NW,315,0.0,-999.0,86,0.00,,,0.00,0,Wunderground v.1.15,2013-02-03 05:10:00,
2013-02-02 21:11:00,49.9,45.6,30.20,NW,319,0.0,-999.0,85,0.00,,,0.00,0,Wunderground v.1.15,2013-02-03 05:11:00,
2013-02-02 21:15:00,48.5,44.8,30.19,NW,315,0.0,-999.0,87,0.00,,,0.00,0,Wunderground v.1.15,2013-02-03 05:15:00,
2013-02-02 21:16:00,49.7,45.7,30.20,NW,319,0.0,-999.0,86,0.00,,,0.00,0,Wunderground v.1.15,2013-02-03 05:16:00,
2013-02-02 21:20:00,48.5,44.8,30.19,NW,315,0.0,-999.0,87,0.00,,,0.00,0,Wunderground v.1.15,2013-02-03 05:20:00,
2013-02-02 21:21:00,49.4,45.4,30.20,NW,319,0.0,-999.0,86,0.00,,,0.00,0,Wunderground v.1.15,2013-02-03 05:21:00,
2013-02-02 21:25:00,48.5,44.8,30.19,NW,315,0.0,-999.0,87,0.00,,,0.00,0,Wunderground v.1.15,2013-02-03 05:25:00,
2013-02-02 21:26:00,49.2,45.2,30.20,NW,319,0.0,-999.0,86,0.00,,,0.00,0,Wunderground v.1.15,2013-02-03 05:26:00,
2013-02-02 21:30:00,48.5,44.8,30.19,NW,315,0.0,-999.0,87,0.00,,,0.00,0,Wunderground v.1.15,2013-02-03 05:30:00,
2013-02-02 21:31:00,49.0,45.3,30.20,NW,319,0.0,-999.0,87,0.00,,,0.00,0,Wunderground v.1.15,2013-02-03 05:31:00,
2013-02-02 21:35:00,48.5,44.8,30.19,NW,315,0.0,-999.0,87,0.00,,,0.00,0,Wunderground v.1.15,2013-02-03 05:35:00,
2013-02-02 21:36:00,48.9,45.2,30.20,NW,319,0.0,-999.0,87,0.00,,,0.00,0,Wunderground v.1.15,2013-02-03 05:36:00,
2013-02-02 21:40:00,48.5,44.8,30.19,NW,315,0.0,-999.0,87,0.00,,,0.00,0,Wunderground v.1.15,2013-02-03 05:40:00,
2013-02-02 21:41:00,48.7,45.0,30.20,NW,319,0.0,-999.0,87,0.00,,,0.00,0,Wunderground v.1.15,2013-02-03 05:41:00,
2013-02-02 21:45:00,48.2,44.8,30.19,NW,315,0.0,-999.0,88,0.00,,,0.00,0,Wunderground v.1.15,2013-02-03 05:45:00,
2013-02-02 21:46:00,48.5,44.8,30.20,NW,319,0.0,-999.0,87,0.00,,,0.00,0,Wunderground v.1.15,2013-02-03 05:46:00,
2013-02-02 21:50:00,48.2,44.8,30.19,NW,315,0.0,-999.0,88,0.00,,,0.00,0,Wunderground v.1.15,2013-02-03 05:50:00,
2013-02-02 21:51:00,48.4,45.0,30.19,NW,319,0.0,-999.0,88,0.00,,,0.00,0,Wunderground v.1.15,2013-02-03 05:51:00,
2013-02-02 21:55:00,48.2,44.8,30.19,NW,315,0.0,-999.0,88,0.00,,,0.00,0,Wunderground v.1.15,2013-02-03 05:55:00,
2013-02-02 21:56:00,48.3,44.9,30.19,NW,319,0.0,-999.0,88,0.00,,,0.00,0,Wunderground v.1.15,2013-02-03 05:56:00,
2013-02-02 22:00:00,48.2,44.8,30.19,NW,315,0.0,-999.0,88,0.00,,,0.00,0,Wunderground v.1.15,2013-02-03 06:00:00,
2013-02-02 22:01:00,48.3,44.9,30.19,NW,319,0.0,-999.0,88,0.00,,,0.00,0,Wunderground v.1.15,2013-02-03 06:01:00,
2013-02-02 22:05:00,48.2,44.8,30.19,NW,315,0.0,-999.0,88,0.00,,,0.00,0,Wunderground v.1.15,2013-02-03 06:05:00,
2013-02-02 22:06:00,48.3,44.9,30.19,NW,319,0.0,-999.0,88,0.00,,,0.00,0,Wunderground v.1.15,2013-02-03 06:06:00,
2013-02-02 22:10:00,48.2,44.8,30.19,NW,315,0.0,-999.0,88,0.00,,,0.00,0,Wunderground v.1.15,2013-02-03 06:10:00,
2013-02-02 22:11:00,48.1,44.7,30.19,NW,319,0.0,-999.0,88,0.00,,,0.00,0,Wunderground v.1.15,2013-02-03 06:11:00,
2013-02-02 22:15:00,47.0,43.3,30.19,N/A,-737280,0.0,-999.0,87,0.00,,,0.00,0,Wunderground v.1.15,2013-02-03 06:15:00,
2013-02-02 22:16:00,48.1,44.7,30.19,NW,319,0.0,-999.0,88,0.00,,,0.00,0,Wunderground v.1.15,2013-02-03 06:16:00,
2013-02-02 22:20:00,47.0,43.3,30.19,N/A,-737280,0.0,-999.0,87,0.00,,,0.00,0,Wunderground v.1.15,2013-02-03 06:20:00,
2013-02-02 22:21:00,48.1,44.7,30.19,NW,319,0.0,-999.0,88,0.00,,,0.00,0,Wunderground v.1.15,2013-02-03 06:21:00,
2013-02-02 22:25:00,47.0,43.3,30.19,N/A,-737280,0.0,-999.0,87,0.00,,,0.00,0,Wunderground v.1.15,2013-02-03 06:25:00,
2013-02-02 22:26:00,48.0,44.6,30.19,NW,319,0.0,-999.0,88,0.00,,,0.00,0,Wunderground v.1.15,2013-02-03 06:26:00,
2013-02-02 22:30:00,47.0,43.3,30.19,N/A,-737280,0.0,-999.0,87,0.00,,,0.00,0,Wunderground v.1.15,2013-02-03 06:30:00,
2013-02-02 22:31:00,48.0,44.6,30.19,NW,319,0.0,-999.0,88,0.00,,,0.00,0,Wunderground v.1.15,2013-02-03 06:31:00,
2013-02-02 22:35:00,47.0,43.3,30.19,N/A,-737280,0.0,-999.0,87,0.00,,,0.00,0,Wunderground v.1.15,2013-02-03 06:35:00,
2013-02-02 22:36:00,47.9,44.5,30.19,NW,319,0.0,-999.0,88,0.00,,,0.00,0,Wunderground v.1.15,2013-02-03 06:36:00,
2013-02-02 22:40:00,47.0,43.3,30.19,N/A,-737280,0.0,-999.0,87,0.00,,,0.00,0,Wunderground v.1.15,2013-02-03 06:40:00,
2013-02-02 22:41:00,47.8,44.1,30.19,NW,319,0.0,-999.0,87,0.00,,,0.00,0,Wunderground v.1.15,2013-02-03 06:41:00,
2013-02-02 22:45:00,46.8,43.4,30.19,N/A,-737280,0.0,-999.0,88,0.00,,,0.00,0,Wunderground v.1.15,2013-02-03 06:45:00,
2013-02-02 22:46:00,47.2,43.5,30.19,NW,319,0.0,-999.0,87,0.00,,,0.00,0,Wunderground v.1.15,2013-02-03 06:46:00,
2013-02-02 22:50:00,46.8,43.4,30.19,N/A,-737280,0.0,-999.0,88,0.00,,,0.00,0,Wunderground v.1.15,2013-02-03 06:50:00,
2013-02-02 22:51:00,46.7,43.3,30.19,NW,319,0.0,-999.0,88,0.00,,,0.00,0,Wunderground v.1.15,2013-02-03 06:51:00,
2013-02-02 22:55:00,46.8,43.4,30.19,N/A,-737280,0.0,-999.0,88,0.00,,,0.00,0,Wunderground v.1.15,2013-02-03 06:55:00,
2013-02-02 22:56:00,46.9,43.5,30.19,NW,319,0.0,-999.0,88,0.00,,,0.00,0,Wunderground v.1.15,2013-02-03 06:56:00,
2013-02-02 23:00:00,46.8,43.4,30.19,N/A,-737280,0.0,-999.0,88,0.00,,,0.00,0,Wunderground v.1.15,2013-02-03 07:00:00,
2013-02-02 23:01:00,47.1,44.0,30.19,NW,319,0.0,-999.0,89,0.00,,,0.00,0,Wunderground v.1.15,2013-02-03 07:01:00,
2013-02-02 23:05:00,46.8,43.4,30.19,N/A,-737280,0.0,-999.0,88,0.00,,,0.00,0,Wunderground v.1.15,2013-02-03 07:05:00,
2013-02-02 23:06:00,47.3,44.2,30.19,NW,319,0.0,-999.0,89,0.00,,,0.00,0,Wunderground v.1.15,2013-02-03 07:06:00,
2013-02-02 23:10:00,46.8,43.4,30.19,N/A,-737280,0.0,-999.0,88,0.00,,,0.00,0,Wunderground v.1.15,2013-02-03 07:10:00,
2013-02-02 23:11:00,47.1,43.7,30.19,NW,319,0.0,-999.0,88,0.00,,,0.00,0,Wunderground v.1.15,2013-02-03 07:11:00,
2013-02-02 23:15:00,46.3,42.9,30.20,N/A,-737280,0.0,-999.0,88,0.00,,,0.00,0,Wunderground v.1.15,2013-02-03 07:15:00,
2013-02-02 23:16:00,46.9,43.5,30.19,NW,319,0.0,-999.0,88,0.00,,,0.00,0,Wunderground v.1.15,2013-02-03 07:16:00,
2013-02-02 23:20:00,46.3,42.9,30.20,N/A,-737280,0.0,-999.0,88,0.00,,,0.00,0,Wunderground v.1.15,2013-02-03 07:20:00,
2013-02-02 23:21:00,46.8,43.7,30.19,NW,319,0.0,-999.0,89,0.00,,,0.00,0,Wunderground v.1.15,2013-02-03 07:21:00,
2013-02-02 23:25:00,46.3,42.9,30.20,N/A,-737280,0.0,-999.0,88,0.00,,,0.00,0,Wunderground v.1.15,2013-02-03 07:25:00,
2013-02-02 23:26:00,46.7,43.6,30.19,NW,319,0.0,-999.0,89,0.00,,,0.00,0,Wunderground v.1.15,2013-02-03 07:26:00,
2013-02-02 23:30:00,46.3,42.9,30.20,N/A,-737280,0.0,-999.0,88,0.00,,,0.00,0,Wunderground v.1.15,2013-02-03 07:30:00,
2013-02-02 23:31:00,46.7,43.6,30.19,NW,319,0.0,-999.0,89,0.00,,,0.00,0,Wunderground v.1.15,2013-02-03 07:31:00,
2013-02-02 23:35:00,46.3,42.9,30.20,N/A,-737280,0.0,-999.0,88,0.00,,,0.00,0,Wunderground v.1.15,2013-02-03 07:35:00,
2013-02-02 23:36:00,46.7,43.6,30.19,NW,319,0.0,-999.0,89,0.00,,,0.00,0,Wunderground v.1.15,2013-02-03 07:36:00,
2013-02-02 23:40:00,46.3,42.9,30.20,N/A,-737280,0.0,-999.0,88,0.00,,,0.00,0,Wunderground v.1.15,2013-02-03 07:40:00,
2013-02-02 23:41:00,46.6,43.5,30.20,NW,319,0.0,-999.0,89,0.00,,,0.00,0,Wunderground v.1.15,2013-02-03 07:41:00,
2013-02-02 23:45:00,45.5,42.7,30.20,N/A,-737280,0.0,-999.0,90,0.00,,,0.00,0,Wunderground v.1.15,2013-02-03 07:45:00,
2013-02-02 23:46:00,46.5,43.1,30.20,NW,319,0.0,-999.0,88,0.00,,,0.00,0,Wunderground v.1.15,2013-02-03 07:46:00,
2013-02-02 23:50:00,45.5,42.7,30.20,N/A,-737280,0.0,-999.0,90,0.00,,,0.00,0,Wunderground v.1.15,2013-02-03 07:50:00,
2013-02-02 23:51:00,46.0,42.9,30.20,NW,319,0.0,-999.0,89,0.00,,,0.00,0,Wunderground v.1.15,2013-02-03 07:51:00,
2013-02-02 23:55:00,45.5,42.7,30.20,N/A,-737280,0.0,-999.0,90,0.00,,,0.00,0,Wunderground v.1.15,2013-02-03 07:55:00,
2013-02-02 23:56:00,45.9,42.8,30.20,NW,319,0.0,-999.0,89,0.00,,,0.00,0,Wunderground v.1.15,2013-02-03 07:56:00,